Maple Lake, MN

1:28 PM CDT on March 24, 2017 (GMT -0500)
Maple Lake Municipal

Weather History for KMGG - June, 2013

Change the Weather History Date:

Sunday, June 30, 2013

  Actual Average (KSTC) Record (KSTC)
Temperature  
Mean Temperature 68 °F -  
Max Temperature 81 °F 79 °F 101 °F (1931)
Min Temperature 54 °F 55 °F 42 °F (1950)
Cooling Degree Days 2    
Growing Degree Days 18 (Base 50)    
Moisture  
Dew Point 56 °F    
Average Humidity 68    
Maximum Humidity 97    
Minimum Humidity 40    
Precipitation  
Precipitation 0.00 in - - ()
Sea Level Pressure  
Sea Level Pressure 30.11 in    
Wind  
Wind Speed 4 mph (North)    
Max Wind Speed 13 mph    
Max Gust Speed 17 mph    
Visibility 10 miles    
Events      
Averages and records for this station are not official NWS values.
T = Trace of Precipitation, MM = Missing Value Source: NWS Daily Summary

Daily Weather History Graph

Daily Weather History Graph

Search for Another Location

Airport or City:

Trip Planner

Search our weather history database for the weather conditions in past years. The results will help you decide how hot, cold, wet, or windy it might be!

Date:

Astronomy

Jun. 30, 2013 Rise Set
Actual Time 5:31 AM CDT 9:07 PM CDT
Civil Twilight 4:54 AM CDT 9:44 PM CDT
Nautical Twilight 4:04 AM CDT 10:34 PM CDT
Astronomical Twilight 2:58 AM CDT 11:40 PM CDT
Moon 12:45 AM CDT (6/30) 2:10 PM CDT (6/30)
Length of Visible Light 16h 50m
Length of Day
15h 35m
Last Quarter, 45% of the Moon is Illuminated
Jun 30
Last Quarter
Jul 8
New
Jul 15
First Quarter
Jul 22
Full
Jul 29
Last Quarter

Hourly Weather History & Observations

Time (CDT) Temp. Heat Index Dew Point Humidity Pressure Visibility Wind Dir Wind Speed Gust Speed Precip Events Conditions
12:16 AM 61.0 °F - 53.8 °F 77% 30.02 in 10.0 mi NNE 3.5 mph - N/A   Clear
12:36 AM 59.5 °F - 53.8 °F 81% 30.03 in 10.0 mi North 3.5 mph - N/A   Clear
12:56 AM 59.5 °F - 53.6 °F 81% 30.03 in 10.0 mi NNE 3.5 mph - N/A   Clear
1:17 AM 59.0 °F - 53.4 °F 82% 30.04 in 10.0 mi NE 3.5 mph - N/A   Clear
1:36 AM 59.7 °F - 53.1 °F 79% 30.05 in 10.0 mi North 3.5 mph - N/A   Clear
1:57 AM 56.8 °F - 52.9 °F 87% 30.05 in 10.0 mi North 3.5 mph - N/A   Clear
2:16 AM 56.8 °F - 53.4 °F 88% 30.05 in 10.0 mi Calm Calm - N/A   Clear
2:36 AM 57.2 °F - 53.8 °F 88% 30.05 in 10.0 mi Calm Calm - N/A   Clear
2:57 AM 56.5 °F - 52.9 °F 88% 30.06 in 10.0 mi NW 3.5 mph - N/A   Clear
3:16 AM 56.3 °F - 53.2 °F 89% 30.06 in 10.0 mi NW 3.5 mph - N/A   Clear
3:36 AM 56.5 °F - 53.6 °F 90% 30.07 in 10.0 mi Calm Calm - N/A   Clear
3:56 AM 55.4 °F - 53.4 °F 93% 30.07 in 10.0 mi NW 3.5 mph - N/A   Clear
4:16 AM 55.6 °F - 54.5 °F 96% 30.07 in 10.0 mi Calm Calm - N/A   Clear
4:37 AM 55.4 °F - 54.5 °F 97% 30.08 in 10.0 mi Calm Calm - N/A   Clear
4:56 AM 54.9 °F - 54.0 °F 97% 30.08 in 10.0 mi Calm Calm - N/A   Clear
5:16 AM 55.6 °F - 54.5 °F 96% 30.07 in 10.0 mi Calm Calm - N/A   Clear
5:36 AM 54.7 °F - 53.8 °F 97% 30.08 in 10.0 mi Calm Calm - N/A   Clear
5:57 AM 55.4 °F - 54.0 °F 95% 30.08 in 10.0 mi Calm Calm - N/A   Clear
6:17 AM 55.4 °F - 54.3 °F 96% 30.09 in 10.0 mi Calm Calm - N/A   Clear
6:36 AM 57.0 °F - 54.3 °F 91% 30.10 in 10.0 mi Calm Calm - N/A   Clear
6:57 AM 57.4 °F - 54.1 °F 89% 30.10 in 10.0 mi NW 5.8 mph - N/A   Clear
7:16 AM 58.3 °F - 55.9 °F 92% 30.11 in 10.0 mi NW 3.5 mph - N/A   Clear
7:36 AM 59.9 °F - 57.2 °F 91% 30.11 in 10.0 mi NNW 4.6 mph - N/A   Clear
7:57 AM 62.1 °F - 56.7 °F 82% 30.12 in 10.0 mi NNW 4.6 mph - N/A   Clear
8:17 AM 63.5 °F - 56.5 °F 78% 30.13 in 10.0 mi NNW 5.8 mph - N/A   Clear
8:36 AM 64.9 °F - 57.0 °F 75% 30.13 in 10.0 mi NW 4.6 mph - N/A   Clear
8:56 AM 65.8 °F - 58.1 °F 76% 30.13 in 10.0 mi NW 5.8 mph - N/A   Clear
9:17 AM 67.6 °F - 59.2 °F 74% 30.14 in 10.0 mi NW 5.8 mph - N/A   Clear
9:36 AM 69.1 °F - 59.2 °F 71% 30.13 in 10.0 mi NNW 5.8 mph - N/A   Clear
9:56 AM 70.7 °F - 58.5 °F 65% 30.13 in 10.0 mi North 9.2 mph - N/A   Clear
10:17 AM 71.8 °F - 57.7 °F 61% 30.13 in 10.0 mi North 9.2 mph - N/A   Clear
10:36 AM 73.2 °F - 59.2 °F 61% 30.13 in 10.0 mi North 8.1 mph - N/A   Clear
10:56 AM 73.8 °F - 57.9 °F 58% 30.13 in 10.0 mi North 9.2 mph - N/A   Clear
11:17 AM 74.3 °F - 56.8 °F 54% 30.13 in 10.0 mi North 9.2 mph - N/A   Clear
11:36 AM 75.4 °F - 55.6 °F 50% 30.13 in 10.0 mi North 6.9 mph - N/A   Clear
11:57 AM 76.1 °F - 54.0 °F 46% 30.13 in 10.0 mi North 9.2 mph - N/A   Clear
12:16 PM 76.5 °F - 54.1 °F 46% 30.13 in 10.0 mi North 8.1 mph - N/A   Clear
12:37 PM 77.2 °F - 56.5 °F 49% 30.13 in 10.0 mi North 9.2 mph - N/A   Clear
12:56 PM 77.9 °F - 57.2 °F 49% 30.12 in 10.0 mi NE 8.1 mph - N/A   Clear
1:16 PM 78.1 °F - 55.6 °F 46% 30.13 in 10.0 mi North 12.7 mph - N/A   Clear
1:37 PM 78.4 °F - 56.8 °F 47% 30.12 in 10.0 mi NE 6.9 mph - N/A   Scattered Clouds
1:57 PM 79.2 °F - 55.9 °F 45% 30.12 in 10.0 mi North 9.2 mph - N/A   Scattered Clouds
2:16 PM 79.7 °F - 54.7 °F 42% 30.12 in 10.0 mi NNE 10.4 mph 17.3 mph N/A   Clear
2:37 PM 79.9 °F - 56.1 °F 44% 30.11 in 10.0 mi NE 4.6 mph - N/A   Clear
2:56 PM 79.7 °F - 54.7 °F 42% 30.11 in 10.0 mi NE 10.4 mph - N/A   Scattered Clouds
3:16 PM 80.2 °F 80.2 °F 54.3 °F 41% 30.11 in 10.0 mi NE 8.1 mph - N/A   Clear
3:37 PM 80.6 °F 80.4 °F 54.3 °F 40% 30.11 in 10.0 mi East 8.1 mph - N/A   Scattered Clouds
3:56 PM 81.0 °F 80.8 °F 55.9 °F 42% 30.11 in 10.0 mi North 8.1 mph - N/A   Scattered Clouds
4:17 PM 80.8 °F 80.5 °F 54.7 °F 40% 30.11 in 10.0 mi North 5.8 mph - N/A   Scattered Clouds
4:36 PM 81.0 °F 80.8 °F 56.1 °F 42% 30.11 in 10.0 mi ENE 9.2 mph - N/A   Scattered Clouds
4:56 PM 80.4 °F 80.4 °F 55.4 °F 42% 30.11 in 10.0 mi NNE 4.6 mph - N/A   Scattered Clouds
5:17 PM 80.8 °F 80.6 °F 54.9 °F 41% 30.11 in 10.0 mi NNE 5.8 mph - N/A   Scattered Clouds
5:36 PM 80.6 °F 80.4 °F 55.0 °F 41% 30.11 in 10.0 mi North 6.9 mph - N/A   Clear
5:56 PM 80.6 °F 80.5 °F 55.8 °F 42% 30.11 in 10.0 mi North 9.2 mph - N/A   Clear
6:17 PM 80.1 °F 80.2 °F 55.6 °F 43% 30.11 in 10.0 mi North 6.9 mph - N/A   Clear
6:36 PM 79.7 °F - 55.2 °F 43% 30.11 in 10.0 mi North 5.8 mph - N/A   Clear
6:56 PM 79.3 °F - 56.5 °F 45% 30.11 in 10.0 mi North 5.8 mph - N/A   Clear
7:16 PM 79.3 °F - 56.1 °F 45% 30.11 in 10.0 mi NNE 4.6 mph - N/A   Clear
7:36 PM 78.4 °F - 56.1 °F 46% 30.11 in 10.0 mi NNE 5.8 mph - N/A   Clear
7:57 PM 76.8 °F - 59.4 °F 55% 30.11 in 10.0 mi North 3.5 mph - N/A   Clear
8:16 PM 75.2 °F - 58.6 °F 56% 30.11 in 10.0 mi North 3.5 mph - N/A   Clear
8:37 PM 74.1 °F - 59.7 °F 61% 30.11 in 10.0 mi Calm Calm - N/A   Clear
8:56 PM 70.5 °F - 60.8 °F 71% 30.11 in 10.0 mi Calm Calm - N/A   Clear
9:17 PM 70.7 °F - 58.1 °F 64% 30.12 in 10.0 mi Calm Calm - N/A   Clear
9:37 PM 67.5 °F - 58.8 °F 74% 30.13 in 10.0 mi Calm Calm - N/A   Clear
9:56 PM 65.5 °F - 59.0 °F 80% 30.13 in 10.0 mi Calm Calm - N/A   Clear
10:17 PM 63.9 °F - 58.1 °F 81% 30.14 in 10.0 mi Calm Calm - N/A   Clear
10:36 PM 64.2 °F - 59.5 °F 85% 30.14 in 10.0 mi Calm Calm - N/A   Clear
10:56 PM 62.8 °F - 59.0 °F 87% 30.14 in 10.0 mi WNW 3.5 mph - N/A   Clear
11:17 PM 63.7 °F - 59.4 °F 86% 30.15 in 10.0 mi Calm Calm - N/A   Clear
11:36 PM 62.2 °F - 59.5 °F 91% 30.15 in 10.0 mi Calm Calm - N/A   Clear
11:57 PM 62.1 °F - 59.4 °F 91% 30.15 in 10.0 mi Calm Calm - N/A   Clear